Weather History for CWGR - January, 2014

Change the Weather History Date:

Sunday, January 19, 2014

  Actual Average Record
Temperature  
Mean Temperature 33 °F -  
Max Temperature 39 °F - - ()
Min Temperature 27 °F - - ()
Degree Days  
Heating Degree Days 32    
Moisture  
Dew Point 30 °F    
Average Humidity 92    
Maximum Humidity 100    
Minimum Humidity 79    
Precipitation  
Precipitation 0.08 in - - ()
Sea Level Pressure  
Sea Level Pressure 29.52 in    
Wind  
Wind Speed 10 mph ()    
Max Wind Speed 24 mph    
Max Gust Speed 36 mph    
T = Trace of Precipitation, MM = Missing Value Source: Averaged Metar Reports

Daily Weather History Graph

Daily Weather History Graph

Search for Another Location

Airport or City:

Trip Planner

Search our weather history database for the weather conditions in past years. The results will help you decide how hot, cold, wet, or windy it might be!

Date:

Astronomy

Jan. 19, 2014 Rise Set
Actual Time 7:47 AM AST 4:49 PM AST
Civil Twilight 7:12 AM AST 5:23 PM AST
Nautical Twilight 6:35 AM AST 6:01 PM AST
Astronomical Twilight 5:58 AM AST 6:37 PM AST
Moon 8:40 PM AST (1/19) 8:58 AM AST (1/19)
Length of Visible Light 10h 10m
Length of Day
9h 02m
Waning Gibbous, 90% of the Moon is Illuminated
Jan 19
Waning Gibbous
Jan 24
Last Quarter
Jan 30
New
Feb 6
First Quarter
Feb 14
Full

Hourly Weather History & Observations

Time (AST) Temp. Windchill Dew Point Humidity Pressure Visibility Wind Dir Wind Speed Gust Speed Precip Events Conditions
12:00 AM 30.6 °F 20.7 °F 29.3 °F 95% 29.54 in - NNE 12.7 mph - N/A   Unknown
1:00 AM 30.6 °F 21.8 °F 27.1 °F 87% 29.52 in - NNE 10.4 mph - N/A   Unknown
2:00 AM 30 °F - 28 °F 86% 29.50 in - NNE 12.7 mph - -  
2:00 AM 30.4 °F 20.5 °F 29.3 °F 96% 29.50 in - NNE 12.7 mph - N/A   Unknown
3:00 AM 29.7 °F 19.1 °F 28.2 °F 94% 29.50 in - North 13.8 mph - N/A   Unknown
4:00 AM 29.7 °F 20.1 °F 27.9 °F 93% 29.54 in - North 11.5 mph - N/A   Unknown
5:00 AM 29.1 °F 20.6 °F 27.9 °F 95% 29.55 in - North 9.2 mph - N/A   Unknown
6:00 AM 28.9 °F 20.4 °F 27.3 °F 94% 29.57 in - NW 9.2 mph - N/A   Unknown
7:00 AM 28.8 °F 20.9 °F 27.9 °F 96% 29.61 in - WNW 8.1 mph - N/A   Unknown
8:00 AM 28 °F - 27 °F 93% 29.65 in - West 5.8 mph - -  
8:00 AM 27.7 °F 21.3 °F 26.8 °F 96% 29.65 in - West 5.8 mph - N/A   Unknown
9:00 AM 29.5 °F 23.4 °F 28.2 °F 95% 29.65 in - West 5.8 mph - N/A   Unknown
10:00 AM 30.0 °F 22.4 °F 28.8 °F 95% 29.66 in - WSW 8.1 mph - N/A   Unknown
11:00 AM 31.6 °F 28.3 °F 25.7 °F 79% 29.67 in - West 3.5 mph - N/A   Unknown
12:00 PM 31.5 °F 28.1 °F 25.7 °F 79% 29.63 in - South 3.5 mph - N/A   Unknown
1:00 PM 31.6 °F 25.1 °F 25.7 °F 79% 29.62 in - South 6.9 mph - N/A   Unknown
2:00 PM 31 °F - 27 °F 81% 29.60 in - SSE 6.9 mph - -  
2:00 PM 32.9 °F 26.7 °F 27.3 °F 80% 29.60 in - SSE 6.9 mph - N/A   Unknown
3:00 PM 30.6 °F 22.4 °F 26.2 °F 84% 29.58 in - SSE 9.2 mph - N/A   Unknown
4:00 PM 30.0 °F 19.1 °F 29.3 °F 97% 29.55 in - SE 15.0 mph - N/A   Unknown
5:00 PM 30.7 °F 20.9 °F 28.9 °F 93% 29.52 in - SE 12.7 mph - N/A   Unknown
6:00 PM 39.0 °F 30.6 °F 37.9 °F 96% 29.46 in - ESE 15.0 mph - N/A   Unknown
7:00 PM 39.7 °F 30.9 °F 39.2 °F 98% 29.40 in - ESE 17.3 mph - 0.04 in   Unknown
8:00 PM 40 °F - 39 °F 96% 29.34 in - SE 16.1 mph - -  
8:00 PM 39.6 °F 31.0 °F 39.2 °F 99% 29.34 in - SE 16.1 mph 21.9 mph N/A   Unknown
9:00 PM 31.8 °F 18.7 °F 31.8 °F 100% 29.27 in - SSE 24.2 mph 35.7 mph 0.08 in   Unknown
10:00 PM 31.8 °F 19.3 °F 31.5 °F 99% 29.23 in - South 21.9 mph 32.2 mph N/A   Unknown
11:00 PM 31.8 °F 20.2 °F 31.3 °F 98% 29.21 in - SSW 18.4 mph 26.5 mph N/A   Unknown